STARLINK-35652 (66393 NORAD) Tracking and Keplerian Element Data

This shows tracking and keplerian element data for the satellite.

Feedback or suggestion? Click here.




ElementValue
Catalog66393
NameSTARLINK-35652
Epoch Orbit596
Epoch Day354.25003472
Epoch Year2025
RAAN228.9576
Inclination53.1579
Eccentricity0.0001334
Argument of Perigee83.3462
Mean Anonmoly123.0735
Mean Motion15.3962867
Decay Rate-7.315E-05
L11 66393U 25257P 25354.25003472 -.00007315 00000+0 -17301-3 0 9992
L22 66393 53.1579 228.9576 0001334 83.3462 123.0735 15.39628670 5963



Live tracking and technical data element details for STARLINK-35652 (NORAD 66393). STARLINK-35652 can be tracked NOW for your location showing map with azimuth and elevation plus other details from your city location.







IsCatalogInMostPopularTable: catalog: 66393, numindb: 12
Update: records affected: 1



GetName: 66393 STARLINK-35652

Hit Count: updated at: Mon, 20 Apr 2026 10:27:19 GMT